Voltar ao catálogo

CZ-6A DEB

AtivoPO
NORAD 54425·DEBRIS·🇨🇳 China

Lançado Nov 11, 2022 de Taiyuan Satellite Launch Center

Loading…

Próximas Passagens (próximas 24 horas)

TLE

AtualizadoSource: Space-Track

Época: Sep 14, 2026, 06:27 UTC

1 54425U 22151EZ  26257.26875918  .00001297  00000-0  24775-3 0  9996
2 54425  98.8620  14.1544 0121114 306.5900  52.4204 14.61400907203719

Acompanhe CZ-6A DEB em tempo real com AllMySat

Download on the App Store